Torna al catalogo

THORAD AGENA D DEB

AttivoLEO
NORAD 4919·DEBRIS·🇺🇸 United States

Lanciato Apr 8, 1970 da Vandenberg Space Force Base

Loading…

Prossimi Passaggi (prossime 24 ore)

TLE

AggiornatoSource: Space-Track

Epoca: Sep 14, 2026, 06:18 UTC

1 04919U 70025FR  26257.26278197  .00001569  00000-0  75375-3 0  9992
2 04919 100.0629  10.3984 0040648 208.7536 151.1395 14.20252235863087

Traccia THORAD AGENA D DEB in tempo reale con AllMySat

Download on the App Store